DJ6OI-23 Weather Reports


Display with metric or nautical units.
time (UTC)temp
F
wind
direction
speed
MPH
gust
MPH
rain 1hr
in
rain 24hr
in
rain mn
in
humidity
%
barometer
mb
20260901065937 63 0.0 0.0 0.00 0.00 0.00 10 998.7
20260901064402 62 0.0 0.0 0.00 0.00 0.00 10 998.6
20260901062828 62 0.0 0.0 0.00 0.00 0.00 10 998.5
20260901061253 62 0.0 0.0 0.00 0.00 0.00 10 998.4
20260901055718 61 0.0 0.0 0.00 0.00 0.00 10 998.3
20260901054143 60 0.0 0.0 0.00 0.00 0.00 10 998.2
20260901052608 60 0.0 0.0 0.00 0.00 0.00 10 998.0
20260901051033 60 0.0 0.0 0.00 0.00 0.00 10 997.9
20260901045458 60 0.0 0.0 0.00 0.00 0.00 10 997.7
20260901043923 59 0.0 0.0 0.00 0.00 0.00 10 997.8
20260901042348 59 0.0 0.0 0.00 0.00 0.00 10 997.6
20260901040813 59 0.0 0.0 0.00 0.00 0.00 10 997.5
20260901035238 58 0.0 0.0 0.00 0.00 0.00 10 997.3
20260901033703 58 0.0 0.0 0.00 0.00 0.00 10 997.2
20260901032129 58 0.0 0.0 0.00 0.00 0.00 10 997.1
20260901030554 57 0.0 0.0 0.00 0.00 0.00 10 997.0
20260901025019 57 0.0 0.0 0.00 0.00 0.00 10 996.9
20260901023444 58 0.0 0.0 0.00 0.00 0.00 10 996.9
20260901021909 59 0.0 0.0 0.00 0.00 0.00 10 996.9
20260901020334 58 0.0 0.0 0.00 0.00 0.00 10 996.7
20260901014759 59 0.0 0.0 0.00 0.00 0.00 10 996.7
20260901013224 59 0.0 0.0 0.00 0.00 0.00 10 996.5
20260901011649 59 0.0 0.0 0.00 0.00 0.00 10 996.5
20260901010114 60 0.0 0.0 0.00 0.00 0.00 10 996.5
20260901004539 59 0.0 0.0 0.00 0.00 0.00 10 996.4
20260901003005 59 0.0 0.0 0.00 0.00 0.00 10 996.3
20260901001430 59 0.0 0.0 0.00 0.00 0.00 10 996.3
20260831234320 59 0.0 0.0 0.00 0.00 0.00 10 996.2
20260831232745 59 0.0 0.0 0.00 0.00 0.00 10 996.0
20260831231210 59 0.0 0.0 0.00 0.00 0.00 10 995.9
20260831225635 59 0.0 0.0 0.00 0.00 0.00 10 995.9
20260831224100 59 0.0 0.0 0.00 0.00 0.00 10 995.9
20260831222525 59 0.0 0.0 0.00 0.00 0.00 10 995.8
20260831220950 58 0.0 0.0 0.00 0.00 0.00 10 995.7
20260831215415 58 0.0 0.0 0.00 0.00 0.00 10 995.6
20260831213840 58 0.0 0.0 0.00 0.00 0.00 10 995.6
20260831212306 59 0.0 0.0 0.00 0.00 0.00 10 995.3
20260831210731 59 0.0 0.0 0.00 0.00 0.00 10 995.2
20260831205156 58 0.0 0.0 0.00 0.00 0.00 10 995.0
20260831203621 58 0.0 0.0 0.00 0.00 0.00 10 994.9
20260831202046 58 0.0 0.0 0.00 0.00 0.00 10 994.7
20260831200511 58 0.0 0.0 0.00 0.00 0.00 10 994.5
20260831194936 59 0.0 0.0 0.00 0.00 0.00 10 994.4
20260831193401 59 0.0 0.0 0.00 0.00 0.00 10 994.3
20260831191826 59 0.0 0.0 0.00 0.00 0.00 10 994.2
20260831190251 60 0.0 0.0 0.00 0.00 0.00 10 994.2
20260831184717 60 0.0 0.0 0.00 0.00 0.00 10 993.7
20260831183142 59 0.0 0.0 0.00 0.00 0.00 10 993.4
20260831181607 59 0.0 0.0 0.00 0.00 0.00 10 993.3
20260831180032 60 0.0 0.0 0.00 0.00 0.00 10 993.2
20260831174457 61 0.0 0.0 0.00 0.00 0.00 10 993.0
20260831172922 61 0.0 0.0 0.00 0.00 0.00 10 992.9
20260831171347 62 0.0 0.0 0.00 0.00 0.00 10 992.9
20260831165812 64 0.0 0.0 0.00 0.00 0.00 96 992.7
20260831164237 65 0.0 0.0 0.00 0.00 0.00 90 992.2
20260831162702 60 0.0 0.0 0.00 0.00 0.00 94 992.1
20260831161127 61 0.0 0.0 0.00 0.00 0.00 88 992.0
20260831155552 60 0.0 0.0 0.00 0.00 0.00 87 992.1
20260831154018 59 0.0 0.0 0.00 0.00 0.00 81 991.9
20260831152443 63 0.0 0.0 0.00 0.00 0.00 65 992.2
20260831150908 72 0.0 0.0 0.00 0.00 0.00 53 991.2
20260831145333 75 0.0 0.0 0.00 0.00 0.00 51 991.1
20260831143758 79 0.0 0.0 0.00 0.00 0.00 48 991.1
20260831142223 81 0.0 0.0 0.00 0.00 0.00 48 991.1
20260831140648 80 0.0 0.0 0.00 0.00 0.00 48 990.6
20260831135113 80 0.0 0.0 0.00 0.00 0.00 50 990.7
20260831133538 78 0.0 0.0 0.00 0.00 0.00 51 990.5
20260831132003 76 0.0 0.0 0.00 0.00 0.00 53 990.8
20260831130428 74 0.0 0.0 0.00 0.00 0.00 56 991.0
20260831124853 78 0.0 0.0 0.00 0.00 0.00 51 990.9
20260831123319 77 0.0 0.0 0.00 0.00 0.00 50 991.1
20260831121744 79 0.0 0.0 0.00 0.00 0.00 49 990.8
20260831120209 79 0.0 0.0 0.00 0.00 0.00 50 990.8
20260831114634 81 0.0 0.0 0.00 0.00 0.00 49 990.9
20260831111524 85 0.0 0.0 0.00 0.00 0.00 49 990.9
20260831105949 81 0.0 0.0 0.00 0.00 0.00 53 991.0
20260831104414 79 0.0 0.0 0.00 0.00 0.00 56 991.1
20260831102839 76 0.0 0.0 0.00 0.00 0.00 60 991.3
20260831101304 76 0.0 0.0 0.00 0.00 0.00 61 991.4
20260831095729 77 0.0 0.0 0.00 0.00 0.00 60 991.6
20260831094154 74 0.0 0.0 0.00 0.00 0.00 64 991.7
20260831092620 78 0.0 0.0 0.00 0.00 0.00 61 991.7
20260831091045 74 0.0 0.0 0.00 0.00 0.00 67 991.8
20260831085510 78 0.0 0.0 0.00 0.00 0.00 64 991.6
20260831083935 76 0.0 0.0 0.00 0.00 0.00 69 991.8
20260831082400 74 0.0 0.0 0.00 0.00 0.00 72 991.9
20260831080825 74 0.0 0.0 0.00 0.00 0.00 73 991.8
20260831075250 72 0.0 0.0 0.00 0.00 0.00 76 991.9
20260831073715 71 0.0 0.0 0.00 0.00 0.00 77 991.7
20260831072140 70 0.0 0.0 0.00 0.00 0.00 79 991.8